User: anonymous   Login
Location: Unspecified
(0.0000°N, 0.0000°E)
Time: 01:10:42
(UTC+00:00)
Language:

DIAMOND RED - Orbit

View from above orbital plane
View from above orbital plane
View from above satellite
View from above satellite

Ground track
Ground track

The orbit data is extracted from the following two-line orbital elements,

1 42783U 17036U   21023.57137928  .00001210  00000-0  53680-4 0  9991
2 42783  97.2723  76.6206 0011047 340.7750  19.3069 15.23410036199251
Epoch (UTC): 23 January 2021 13:42:47
Eccentricity: 0.0011047
inclination: 97.2723°
perigee height: 488 km
apogee height: 503 km
right ascension of ascending node: 76.6206°
argument of perigee: 340.7750°
revolutions per day: 15.23410036
mean anomaly at epoch: 19.3069°
orbit number at epoch: 19925

The dashed part of the orbit path shows where the satellite is in the earth's shadow,  

DLR